カタログに戻る

ASTRA 1L

運用中通信GEO
NORAD 31306·PAYLOAD·🇱🇺 Luxembourg

打ち上げ May 4, 2007 から Guiana Space Centre

Loading…

TLE

最新Source: CelesTrak SupGP

元期: Sep 13, 2026, 23:44 UTC

1 31306C 07016A   26256.98958333 -.00000094  00000+0  00000+0 0  2564
2 31306   1.5449  80.6807 0004878  90.3235 153.7344  1.00271989    11

AllMySatでASTRA 1Lをリアルタイム追跡

Download on the App Store